Flag for USA

Past Weather in Washington DC, USA — Yesterday and Last 2 Weeks

Now
73 °F

Broken clouds.


Feels Like: 71 °F
Forecast: 75 / 59 °F
Wind: 9 mph from South

Location: Reagan National Airport
Current Time: Sep 29, 2020 at 10:32:17 am
Latest Report: Sep 29, 2020 at 9:17 am
Visibility: 10 mi
Pressure29.86 "Hg
Humidity: 88%
Dew Point: 69 °F
Location of Washington DCLocation

Past Weather in Washington DC — Graph

°F

Washington DC Temperature Yesterday

Maximum temperature yesterday: 80 °F (at 3:52 pm)
Minimum temperature yesterday: 67 °F (at 6:52 am)
Average temperature yesterday: 72 °F

High & Low Weather Summary for the Past Weeks

 TemperatureHumidityPressure
High80 °F (Sep 23, 1:52 pm)97% (Sep 26, 4:20 am)30.57 "Hg (Sep 26, 4:20 am)
Low47 °F (Sep 20, 5:52 am)31% (Sep 19, 4:52 pm)29.83 "Hg (Sep 29, 5:29 am)
Average66 °F72%30.11 "Hg
* Reported Sep 14 9:52 am — Sep 29 9:17 am, Washington DC. Weather by CustomWeather, © 2020

Note: Actual official high and low records may vary slightly from our data, if they occured in-between our weather recording intervals... More about our weather records

Washington DC Weather History for the Previous 24 Hours

Scroll right to see more
 ConditionsComfort  
Time TempWeatherWind HumidityBarometerVisibility
9:17 am
Tue, Sep 29
73 °FBroken clouds.9 mph88%29.86 "Hg10 mi
8:52 am72 °FPartly sunny.12 mph87%29.86 "Hg10 mi
7:52 am70 °FBroken clouds.12 mph93%29.85 "Hg10 mi
6:52 am70 °FPassing clouds.15 mph90%29.84 "Hg10 mi
6:17 am70 °FPartly cloudy.15 mph90%29.84 "Hg10 mi
5:52 am71 °FPassing clouds.13 mph87%29.83 "Hg10 mi
5:29 am71 °FMostly cloudy.12 mph87%29.83 "Hg10 mi
5:05 am70 °FPartly cloudy.12 mph90%29.84 "Hg10 mi
4:52 am70 °FOvercast.10 mph90%29.84 "Hg10 mi
4:35 am70 °FOvercast.13 mph93%29.84 "Hg10 mi
3:52 am70 °FPassing clouds.8 mph90%29.84 "Hg10 mi
2:52 am72 °FMostly cloudy.9 mph84%29.85 "Hg10 mi
1:52 am71 °FPassing clouds.9 mph90%29.85 "Hg10 mi
12:52 am72 °FPassing clouds.9 mph87%29.86 "Hg10 mi
11:52 pm
Mon, Sep 28
73 °FMostly cloudy.10 mph84%29.87 "Hg10 mi
10:52 pm72 °FPassing clouds.10 mph87%29.88 "Hg10 mi
9:52 pm73 °FPassing clouds.9 mph84%29.87 "Hg10 mi
8:52 pm74 °FPassing clouds.12 mph82%29.85 "Hg10 mi
7:52 pm75 °FPassing clouds.12 mph82%29.84 "Hg10 mi
6:52 pm76 °FScattered clouds.8 mph80%29.85 "Hg10 mi
5:52 pm78 °FScattered clouds.12 mph74%29.84 "Hg10 mi
4:52 pm80 °FPartly sunny.8 mph69%29.85 "Hg10 mi
3:52 pm80 °FPartly sunny.9 mph69%29.86 "Hg10 mi
2:52 pm79 °FScattered clouds.12 mph69%29.86 "Hg10 mi
1:52 pm77 °FOvercast.12 mph74%29.88 "Hg10 mi
12:52 pm76 °FPartly sunny.7 mph74%29.90 "Hg10 mi
11:52 am76 °FPartly sunny.9 mph74%29.90 "Hg10 mi
10:52 am72 °FScattered clouds.9 mph84%29.91 "Hg10 mi
Weather by CustomWeather, © 2020

See weather overview